Location: Arbon
(43.0005°N, 0.7472°E)
Time: 11:22:05
(UTC+00:00)

SL-16 R/B - Pass Details

Date: 22 April 2026
Orbit: 839 x 849 km, 71.0° (Epoch: 15 May)

Event Time Altitude Azimuth Distance (km) Brightness Sun altitude
Rises 20:50:24 0° 218° (SW) 3,383 5.3 -20.3°
Reaches altitude 10° 20:52:54 10° 223° (SW) 2,453 4.6 -20.6°
Maximum altitude 20:58:23 52° 299° (WNW) 1,039 3.0 -21.4°
Drops below altitude 10° 21:03:56 10° 16° (NNE) 2,475 5.0 -22.1°
Sets 21:06:28 0° 21° (NNE) 3,415 5.7 -22.4°
